NOAA 1 [-] 1 04793U 70106A 12034.54435222 -.00000031 00000-0 10000-3 0 1614 2 04793 102.0816 58.5335 0031866 49.8187 310.5665 12.53950604883418 NOAA 2 [-] 1 06235U 72082A 12034.53776613 -.00000027 00000-0 10000-3 0 2608 2 06235 101.4136 28.7424 0003614 201.0324 159.0600 12.53021516797872 NOAA 3 [-] 1 06920U 73086A 12034.55174090 -.00000030 00000-0 10000-3 0 1521 2 06920 101.7051 35.3320 0006477 158.8370 201.2962 12.40322137731464 NOAA 4 [-] 1 07529U 74089A 12034.59334690 -.00000027 00000-0 10000-3 0 1626 2 07529 101.4115 37.1817 0008910 237.4444 122.5769 12.53069143702466 NOAA 5 [-] 1 09057U 76077A 12034.51104658 -.00000030 00000-0 10000-3 0 403 2 09057 101.7943 62.2808 0009530 357.3475 2.7536 12.37782377605422 TIROS N [P] 1 11060U 78096A 12034.06491460 .00000083 00000-0 63312-4 0 9774 2 11060 99.0350 30.6456 0010683 159.1562 201.0049 14.17640373935084 NOAA 6 [P] 1 11416U 79057A 12034.54735400 .00000216 00000-0 95969-4 0 9798 2 11416 98.4127 34.7269 0009724 297.0290 62.9899 14.32233884699306 NOAA 7 [-] 1 12553U 81059A 12034.44549579 .00000085 00000-0 64100-4 0 872 2 12553 98.7808 344.0419 0012358 82.6982 277.5596 14.16867284581649 NOAA 8 [-] 1 13923U 83022A 12034.56805000 .00000068 00000-0 44528-4 0 9921 2 13923 98.4806 55.4367 0015430 164.9448 195.2189 14.27853247502032 NOAA 9 [P] 1 15427U 84123A 12034.49704679 -.00000055 00000-0 -69649-5 0 8779 2 15427 98.5498 1.4581 0014803 169.8842 190.2617 14.15468809400946 NOAA 10 [-] 1 16969U 86073A 12034.51648816 .00000131 00000-0 70981-4 0 8032 2 16969 98.5968 65.8732 0011451 268.6564 91.3321 14.27525380320650 NOAA 11 [-] 1 19531U 88089A 12034.29513879 .00000188 00000-0 11981-3 0 8029 2 19531 98.7379 122.2661 0010327 248.8844 111.1244 14.14952164205430 NOAA 12 [-] 1 21263U 91032A 12034.56111869 .00000050 00000-0 40222-4 0 2910 2 21263 98.7393 56.7941 0012895 231.1805 128.8219 14.25475673 77371 NOAA 13 [-] 1 22739U 93050A 12034.25522237 .00000088 00000-0 71163-4 0 8119 2 22739 98.7941 115.2004 0009823 2.0666 358.0543 14.12320611952610 NOAA 14 [-] 1 23455U 94089A 12034.52003107 .00000037 00000-0 42510-4 0 7744 2 23455 98.8349 119.6833 0009411 348.1844 11.9107 14.13874470881768 NOAA 15 [P] 1 25338U 98030A 12034.45914932 -.00000028 00000-0 66402-5 0 1264 2 25338 98.6790 22.7219 0011143 136.8541 223.3515 14.25025550713666 NOAA 16 [P] 1 26536U 00055A 12034.47095006 -.00000152 00000-0 -56906-4 0 6103 2 26536 99.1141 74.4014 0011388 103.0432 257.2013 14.12700301586012 NOAA 17 [P] 1 27453U 02032A 12034.29390664 -.00000055 00000-0 -61502-5 0 5837 2 27453 98.3530 68.0535 0011577 187.8989 172.2010 14.24388661499557 NOAA 18 [+] 1 28654U 05018A 12034.32419292 -.00000076 00000-0 -16942-4 0 601 2 28654 99.0288 351.4167 0014205 171.1731 188.9700 14.11598812345536 NOAA 19 [+] 1 33591U 09005A 12034.30188475 .00000311 00000-0 19638-3 0 2483 2 33591 98.8520 335.8525 0014757 44.7515 315.4846 14.11290002153983 NPP [+] 1 37849U 11061A 12033.98034657 -.00002636 00000-0 -12304-2 0 926 2 37849 98.7039 333.6775 0001523 64.1069 296.0383 14.19533466 13850